Location: Schommer Observatory
(40.5200°N, 74.4500°W)
Time: 04:33:55
(UTC-05:00)

Tiangong 2 - Pass Details

Date: 13 November 2017
Orbit: 386 x 392 km, 42.8° (Epoch: 24 November)

Event Time Altitude Azimuth Distance (km) Brightness Sun altitude
Rises 17:17:31 0° 284° (WNW) 2,276 6.1 -7.2°
Reaches altitude 10° 17:19:41 10° 276° (W) 1,417 5.2 -7.6°
Maximum altitude 17:22:40 36° 207° (SSW) 627 2.6 -8.1°
Drops below altitude 10° 17:25:38 10° 138° (SE) 1,408 3.7 -8.7°
Sets 17:27:46 0° 130° (SE) 2,258 4.6 -9.1°
Enters shadow 17:27:46 - 130° (SE) 2,259 4.6 -9.1°
